This demonstration page uses our WeatherBlox Daily Observations layout. Learn more.

Left ArrowRight Arrow

36.19886, -115.1175

Hourly Observations for February 8, 2022

Temp ( °F °C ) Dew Point ( °F °C ) Humidity (%) Winds ( mph kmh ) Pressure ( in mb ) Visibility ( mi km ) Precip ( " mm )
12:53 am 00:53 Clear 49 9.4 15 -9.4 26 26 WNW 5 7 30.37 1029 10 16 0.00 0.00
1:53 am 01:53 Clear 47 8.3 14 -10 26 26 W 7 11 30.36 1028 10 16 0.00 0.00
2:53 am 02:53 Clear 47 8.3 15 -9.4 28 28 W 5 7 30.35 1028 10 16 0.00 0.00
3:53 am 03:53 Clear 49 9.4 13 -10.6 23 23 NW 10 17 30.34 1027 10 16 0.00 0.00
4:53 am 04:53 Clear 50 10 13 -10.6 22 22 NW 14 22 30.35 1028 10 16 0.00 0.00
5:53 am 05:53 Clear 48 8.9 13 -10.6 24 24 NNW 12 19 30.35 1028 10 16 0.00 0.00
6:53 am 06:53 Sunny 45 7.2 15 -9.4 30 30 W 7 11 30.38 1029 10 16 0.00 0.00
7:53 am 07:53 Sunny 49 9.4 15 -9.4 26 26 WNW 6 9 30.39 1029 10 16 0.00 0.00
8:53 am 08:53 Sunny 56 13.3 15 -9.4 20 20 N 5 7 30.40 1029 10 16 0.00 0.00
9:53 am 09:53 Sunny 57 13.9 16 -8.9 20 20 E 5 7 30.40 1029 10 16 0.00 0.00
10:53 am 10:53 Sunny 61 16.1 17 -8.3 18 18 SE 7 11 30.38 1029 10 16 0.00 0.00
11:53 am 11:53 Sunny 64 17.8 16 -8.9 15 15 SE 5 7 30.34 1027 10 16 0.00 0.00
12:53 pm 12:53 Sunny 67 19.4 17 -8.3 15 15 ESE 5 7 30.31 1026 10 16 0.00 0.00
1:53 pm 13:53 Sunny 70 21.1 17 -8.3 13 13 ESE 3 6 30.27 1025 10 16 0.00 0.00
2:53 pm 14:53 Sunny 74 23.3 17 -8.3 11 11 Calm 30.26 1025 10 16 0.00 0.00
3:53 pm 15:53 Sunny 75 23.9 16 -8.9 10 10 E 5 7 30.24 1024 10 16 0.00 0.00
4:53 pm 16:53 Sunny 74 23.3 12 -11.1 9 9 N 9 15 30.23 1024 10 16 0.00 0.00
5:53 pm 17:53 Clear 71 21.7 12 -11.1 10 10 NNE 8 13 30.24 1024 10 16 0.00 0.00
6:53 pm 18:53 Clear 66 18.9 12 -11.1 12 12 NNE 10 17 30.27 1025 10 16 0.00 0.00
7:53 pm 19:53 Clear 64 17.8 12 -11.1 13 13 N 5 7 30.28 1025 10 16 0.00 0.00
8:53 pm 20:53 Clear 61 16.1 12 -11.1 14 14 WNW 6 9 30.28 1026 10 16 0.00 0.00
9:53 pm 21:53 Clear 61 16.1 12 -11.1 14 14 NNW 12 19 30.29 1026 10 16 0.00 0.00
10:53 pm 22:53 Clear 63 17.2 12 -11.1 13 13 NW 18 30 30.28 1026 10 16 0.00 0.00
11:53 pm 23:53 Clear 60 15.6 12 -11.1 15 15 NNW 14 22 30.29 1026 10 16 0.00 0.00

Powered by AerisWeather